This demonstration page uses our WeatherBlox Daily Observations layout. Learn more.

39.92423, -83.80882

Hourly Observations for June 29, 2019

Temp ( °F °C ) Dew Point ( °F °C ) Humidity (%) Winds ( mph kmh ) Pressure ( in mb ) Visibility ( mi km ) Precip ( " mm )
12:56 am 00:56 Clear 74 23.3 68 19.8 81 81 ESE 6 9 30.15 1021 10 16.0934 0 0
1:56 am 01:56 Clear 74 23.1 67 19.4 80 80 S 5 7 30.14 1021 10 16.0934 0 0
2:56 am 02:56 Clear 72 22.4 67 19.3 83 83 S 3 6 30.14 1021 10 16.0934 0 0
3:56 am 03:56 Mostly Cloudy 70 21.1 67 19.2 89 89 SE 3 6 30.13 1020 10 16.0934 0 0
4:56 am 04:56 Cloudy 71 21.4 67 19.5 89 89 Calm 30.13 1020 10 16.0934 0 0
5:56 am 05:56 Clear 71 21.4 67 19.3 88 88 Calm 30.14 1021 10 16.0934 0 0
6:56 am 06:56 Sunny 71 21.6 67 19.5 88 88 Calm 30.15 1021 10 16.0934 0 0
7:49 am 07:49 Partly Cloudy with Light Rain 73 23 70 21 89 89 Calm 30.16 1021 10 16.0934 0 0
7:56 am 07:56 Mostly Sunny 73 23 69 20.7 87 87 S 3 6 30.16 1021 10 16.0934 0 0
8:56 am 08:56 Partly Cloudy 78 25.8 70 21 75 75 W 3 6 30.16 1021 8 12.87472 0 0
9:56 am 09:56 Sunny 82 27.9 70 21.2 67 67 SW 6 9 30.16 1021 10 16.0934 0 0
10:56 am 10:56 Partly Cloudy 85 29.2 70 20.9 61 61 W 7 11 30.15 1021 10 16.0934 0 0
11:56 am 11:56 Partly Cloudy 85 29.6 69 20.7 59 59 WSW 12 19 30.14 1021 10 16.0934 0 0
12:12 pm 12:12 Mostly Sunny 86 30 70 21 59 59 W 12 19 30.14 1021 10 16.0934 0 0
12:56 pm 12:56 Mostly Sunny 87 30.8 69 20.4 54 54 SW 9 15 30.13 1020 10 16.0934 0 0
1:56 pm 13:56 Partly Cloudy 88 31.3 68 20.2 52 52 WSW 12 19 30.11 1020 10 16.0934 0 0
2:56 pm 14:56 Mostly Sunny 89 31.8 68 20 50 50 SW 10 17 30.08 1019 10 16.0934 0 0
3:56 pm 15:56 Partly Cloudy 90 32.4 67 19.3 46 46 WSW 10 17 30.06 1018 10 16.0934 0 0
4:56 pm 16:56 Mostly Sunny 91 32.5 68 20 48 48 SW 14 22 30.05 1018 10 16.0934 0 0
5:56 pm 17:56 Mostly Sunny 89 31.8 66 19.1 47 47 SW 8 13 30.03 1017 10 16.0934 0 0
6:16 pm 18:16 Mostly Sunny 90 32 66 19 46 46 SW 14 22 30.02 1017 10 16.0934 0 0
6:56 pm 18:56 Mostly Sunny 89 31.7 65 18.6 46 46 WSW 10 17 30.02 1017 10 16.0934 0 0
7:56 pm 19:56 Mostly Cloudy 87 30.5 67 19.5 52 52 SW 9 15 30.02 1017 10 16.0934 0 0
8:56 pm 20:56 Sunny 81 27.4 68 20 64 64 SW 8 13 30.02 1017 10 16.0934 0 0
9:56 pm 21:56 Mostly Cloudy 79 26.3 69 20.4 70 70 SW 7 11 30.03 1017 10 16.0934 0 0
10:56 pm 22:56 Mostly Clear 82 27.5 67 19.5 62 62 WSW 9 15 30.04 1017 10 16.0934 0 0
11:56 pm 23:56 Clear 79 26.3 68 19.9 68 68 WSW 9 15 30.04 1017 10 16.0934 0 0

Powered by AerisWeather